EW3349 Weather Reports


Display with metric or nautical units.
time (UTC)temp
F
wind
direction
speed
MPH
gust
MPH
rain 1hr
in
rain 24hr
in
rain mn
in
humidity
%
barometer
mb
20260902095531 71 172 0.0 0.0 0.00 0.00 0.00 96 1012.8
20260902094522 71 184 0.0 0.0 0.00 0.00 0.00 96 1012.7
20260902093545 71 200 0.0 0.0 0.00 0.00 0.00 96 1013.2
20260902092603 71 200 0.0 0.0 0.00 0.00 0.00 95 1013.2
20260902091543 71 200 0.0 0.0 0.00 0.00 0.00 95 1013.0
20260902085440 71 194 0.0 0.0 0.00 0.00 0.00 96 1013.3
20260902084458 71 198 0.0 1.0 0.00 0.00 0.00 96 1013.2
20260902083502 71 134 0.0 0.0 0.00 0.00 0.00 96 1013.4
20260902082436 71 158 0.0 0.0 0.00 0.02 0.00 96 1013.5
20260902081451 71 177 0.0 0.0 0.00 0.02 0.00 95 1013.7
20260902080514 71 178 0.0 0.0 0.00 0.02 0.00 95 1013.6
20260902074428 70 194 0.0 0.0 0.00 0.09 0.00 95 1013.6
20260902072236 70 194 0.0 0.0 0.00 0.09 0.00 94 1013.7
20260902070040 71 194 0.0 0.0 0.00 0.09 0.00 93 1013.8
20260902065022 71 199 0.0 0.0 0.00 0.09 0.00 93 1013.7
20260902064035 71 157 0.0 2.0 0.00 0.09 0.00 93 1013.5
20260902063006 71 171 0.0 2.0 0.00 0.09 0.00 93 1013.6
20260902062015 71 200 0.0 1.0 0.00 0.09 0.00 93 1014.0
20260902055935 71 193 0.0 0.0 0.00 0.09 0.00 93 1014.0
20260902054933 71 198 0.0 0.0 0.00 0.09 0.00 93 1014.0
20260902053901 70 152 0.0 0.0 0.00 0.10 0.00 94 1014.1
20260902052849 70 194 0.0 0.0 0.00 0.11 0.00 94 1013.9
20260902051910 70 191 0.0 0.0 0.00 0.12 0.00 94 1013.9
20260902050930 70 191 0.0 0.0 0.00 0.13 0.00 94 1014.0
20260902045943 70 224 0.0 0.0 0.00 0.13 0.00 94 1013.9
20260902044951 70 225 0.0 0.0 0.00 0.13 0.00 94 1013.9
20260902043920 70 225 0.0 0.0 0.00 0.13 0.00 94 1013.9
20260902042945 70 225 0.0 0.0 0.00 0.13 0.00 93 1013.9
20260902041934 70 225 0.0 0.0 0.00 0.13 0.00 93 1014.0
20260902040955 70 225 0.0 0.0 0.00 0.13 0.00 93 1013.9
20260902035956 71 225 0.0 0.0 0.00 0.13 0.13 93 1013.9
20260902034946 71 225 0.0 0.0 0.00 0.13 0.13 93 1013.9
20260902033918 71 225 0.0 0.0 0.00 0.13 0.13 93 1014.0
20260902032858 71 191 0.0 0.0 0.00 0.13 0.13 93 1013.8
20260902031854 71 196 0.0 1.0 0.00 0.13 0.13 93 1013.8
20260902030851 71 180 0.0 0.0 0.00 0.13 0.13 93 1013.9
20260902025838 71 180 0.0 0.0 0.00 0.13 0.13 92 1014.0
20260902024837 71 180 0.0 0.0 0.00 0.13 0.13 92 1013.9
20260902023840 71 180 0.0 0.0 0.00 0.13 0.13 92 1014.0
20260902022840 71 303 0.0 0.0 0.00 0.13 0.13 91 1014.0
20260902021825 71 303 0.0 0.0 0.00 0.13 0.13 91 1014.0
20260902015617 72 304 0.0 0.0 0.00 0.13 0.13 91 1014.0
20260902014614 72 302 0.0 0.0 0.00 0.13 0.13 91 1014.0
20260902013559 72 302 0.0 0.0 0.00 0.13 0.13 91 1014.1
20260902012602 73 306 0.0 0.0 0.00 0.13 0.13 90 1013.9
20260902011543 73 57 0.0 0.0 0.00 0.13 0.13 90 1013.8
20260902010541 73 39 0.0 0.0 0.00 0.13 0.13 89 1013.7
20260902004417 73 39 0.0 0.0 0.00 0.13 0.13 89 1013.4
20260902001138 74 39 0.0 0.0 0.00 0.13 0.13 88 1012.7
20260902000131 74 39 0.0 0.0 0.00 0.13 0.13 87 1012.6
20260901235136 75 69 0.0 0.0 0.00 0.13 0.13 86 1012.6
20260901234138 76 69 0.0 0.0 0.00 0.13 0.13 85 1012.7
20260901231946 77 69 0.0 0.0 0.00 0.14 0.13 83 1012.8
20260901230935 78 351 0.0 0.0 0.00 0.14 0.13 83 1012.8
20260901225916 78 351 0.0 0.0 0.00 0.14 0.13 82 1012.9
20260901224852 79 351 0.0 0.0 0.00 0.14 0.13 81 1013.1
20260901222721 80 228 0.0 0.0 0.00 0.14 0.13 78 1012.8
20260901221736 81 100 0.0 0.0 0.00 0.14 0.13 77 1012.8
20260901220703 81 325 0.0 0.0 0.00 0.14 0.13 78 1012.8
20260901215725 81 278 0.0 0.0 0.00 0.14 0.13 77 1012.8
20260901214656 81 334 0.0 0.0 0.00 0.14 0.13 79 1012.7
20260901213632 81 314 0.0 0.0 0.00 0.14 0.13 78 1012.7
20260901212648 82 299 0.0 0.0 0.00 0.14 0.13 77 1012.5
20260901211629 82 299 0.0 0.0 0.00 0.14 0.13 76 1012.5
20260901210558 82 290 0.0 0.0 0.00 0.14 0.13 74 1012.6
20260901201102 85 352 0.0 2.0 0.00 0.17 0.13 71 1012.8
20260901200055 86 311 0.0 0.0 0.00 0.17 0.13 69 1012.8
20260901195035 85 139 0.0 0.0 0.00 0.19 0.13 70 1012.7
20260901194021 85 201 0.0 1.0 0.00 0.23 0.13 71 1012.6
20260901193008 84 358 0.0 0.0 0.00 0.24 0.13 72 1012.7
20260901191955 83 349 0.0 1.0 0.00 0.25 0.13 75 1012.7
20260901191007 82 21 0.0 0.0 0.00 0.33 0.13 77 1012.8
20260901183737 82 323 0.0 3.0 0.00 0.57 0.13 76 1012.8
20260901182725 82 353 0.0 1.0 0.00 0.63 0.13 76 1012.7
20260901180633 82 326 0.0 2.0 0.00 0.66 0.13 78 1012.5
20260901175646 80 14 0.0 2.0 0.00 0.73 0.13 80 1012.5
20260901174647 80 330 0.0 6.0 0.00 0.77 0.13 82 1012.5
20260901173712 80 6 0.0 1.0 0.00 0.79 0.13 81 1012.3
20260901172722 80 352 0.0 2.0 0.00 0.79 0.13 81 1012.3
20260901171707 81 8 0.0 0.0 0.00 0.79 0.13 79 1012.1
20260901170634 81 20 0.0 0.0 0.00 0.79 0.13 77 1012.0
20260901165645 82 2 0.0 2.0 0.00 0.80 0.13 76 1012.0
20260901164651 82 196 0.0 0.0 0.00 0.82 0.13 79 1012.2
20260901163648 82 353 0.0 0.0 0.00 0.82 0.13 78 1012.2
20260901162656 81 285 0.0 5.0 0.00 0.83 0.13 80 1012.2
20260901160557 81 181 0.0 4.0 0.00 0.85 0.13 79 1011.9
20260901155551 81 162 0.0 3.0 0.00 0.86 0.13 79 1011.9
20260901154533 80 165 0.0 3.0 0.00 0.87 0.13 80 1012.2
20260901152419 79 162 0.0 2.0 0.00 0.89 0.13 82 1012.2
20260901151413 78 154 0.0 2.0 0.00 0.90 0.13 86 1012.2
20260901150405 78 200 0.0 0.0 0.00 0.91 0.13 88 1012.2
20260901145347 77 161 0.0 0.0 0.00 0.92 0.13 88 1012.2
20260901144348 76 104 0.0 3.0 0.00 0.92 0.13 88 1012.2
20260901143406 75 345 0.0 0.0 0.00 0.94 0.13 92 1012.2
20260901142334 75 189 0.0 1.0 0.00 0.98 0.13 94 1012.1
20260901141302 73 174 0.0 1.0 0.00 1.00 0.13 96 1012.1
20260901140234 73 145 0.0 0.0 0.00 1.01 0.13 97 1012.1
20260901135241 72 167 0.0 0.0 0.00 1.03 0.13 97 1012.2
20260901134250 72 173 0.0 0.0 0.00 1.05 0.13 97 1012.2
20260901132211 71 176 0.0 0.0 0.00 1.06 0.13 97 1012.1
20260901131140 71 176 0.0 0.0 0.00 1.06 0.13 97 1012.2
20260901130134 71 176 0.0 0.0 0.00 1.11 0.13 97 1012.3
20260901125109 71 176 0.0 0.0 0.00 1.12 0.13 97 1012.4
20260901124105 71 176 0.0 0.0 0.00 1.14 0.13 97 1012.3
20260901123045 71 176 0.0 0.0 0.00 1.14 0.13 97 1012.3
20260901122105 71 176 0.0 0.0 0.00 1.14 0.13 97 1012.2
20260901121108 71 176 0.0 0.0 0.00 1.15 0.13 98 1012.1
20260901120049 70 176 0.0 0.0 0.00 1.15 0.13 97 1012.2
20260901115040 70 176 0.0 0.0 0.00 1.15 0.13 97 1012.1
20260901114050 70 176 0.0 0.0 0.00 1.15 0.13 97 1012.0
20260901113058 69 176 0.0 0.0 0.00 1.15 0.13 97 1012.0
20260901112035 69 176 0.0 0.0 0.00 1.15 0.13 97 1012.0
20260901111034 69 176 0.0 0.0 0.00 1.15 0.13 97 1011.9
20260901110032 69 176 0.0 0.0 0.00 1.15 0.13 97 1011.7
20260901103912 69 176 0.0 0.0 0.00 1.15 0.13 97 1011.6
20260901102927 69 168 0.0 0.0 0.00 1.15 0.13 97 1011.8
20260901101945 68 168 0.0 0.0 0.00 1.15 0.13 97 1011.6
20260901100926 68 168 0.0 0.0 0.00 1.15 0.13 97 1011.6
20260901095910 68 168 0.0 0.0 0.00 1.15 0.13 97 1011.6